{"data":{"norad_id":58410,"epoch":"2026-05-25T03:38:05.788032Z","epoch_age_seconds":62695,"freshness":"FRESH","line1":"1 58410U 23180J   26145.15145588  .00000974  00000+0  44922-4 0  9991","line2":"2 58410  43.0010 194.9286 0001278 268.4944  91.5761 15.27581280141039","mean_motion":15.2758128,"eccentricity":0.0001278,"inclination_deg":43.001,"raan_deg":194.9286,"arg_perigee_deg":268.4944,"mean_anomaly_deg":91.5761,"bstar":4.4922e-5,"rev_number":14103,"period_min":94.266669725096,"perigee_km":482.16840416861,"apogee_km":483.9221223551,"semimajor_km":6861.1822632619,"source":"CELESTRAK","updated_at":"2026-05-25T13:38:18.618251Z"}}